Temp
83 81 81 80 79 78 78 79 82 80 80 78 78 78 77 76 75 75 73 73 71 70
81 81 81 81 81 79 81 81 79 80 78 78 78 77 76 75 75 74 74 73 72 71
81 81 81 81 79 80 79 80 79 79 78 78 77 76 75 75 74 73 73 72 71 71
82 82 81 80 80 80 80 80 79 78 77 77 76 76 75 74 74 72 73 72 71 71
81 82 82 80 80 81 79 79 78 78 77 76 76 75 74 74 74 73 71 72 71 70
80 79 79 79 80 80 79 78 78 78 76 75 76 75 75 74 73 73 73 72 71 70
78 79 79 79 80 80 78 78 78 76 76 75 76 76 75 74 72 71 73 72 71 70
80 80 79 78 79 79 78 78 78 77 76 77 78 80 76 74 73 71 71 71 70 70
80 79 78 79 79 78 78 79 77 76 76 76 79 69 70 70 72 72 70 69 69 69
80 79 79 79 78 78 78 77 76 76 76 75 75 63 66 68 69 69 69 68 67 66
80 79 78 78 77 77 77 76 74 74 75 74 75 62 62 64 68 69 69 69 68 66
80 78 78 77 76 76 75 74 74 75 74 72 72 61 58 60 66 67 68 70 68 68
80 79 78 77 76 75 77 74 76 75 75 72 73 59 58 62 60 61 64 68 68 62
81 79 80 78 74 72 72 71 71 72 73 74 71 69 60 58 62 64 65 66 68 69
MSLP
1014.84 1015.03 1015.14 1015.28 1015.55 1015.72 1015.66 1015.54 1015.58 1015.76 1015.77 1015.81 1015.66 1015.54 1015.48 1015.65 1015.53 1015.38 1015.59 1015.70 1015.72 1015.61
1014.55 1014.87 1015.06 1015.32 1015.55 1015.61 1015.51 1015.55 1015.65 1015.64 1015.67 1015.59 1015.35 1015.28 1015.30 1015.27 1015.16 1015.22 1015.37 1015.33 1015.42 1015.39
1013.98 1014.38 1014.81 1015.10 1015.37 1015.49 1015.49 1015.49 1015.54 1015.56 1015.56 1015.42 1015.28 1015.09 1015.06 1015.13 1015.10 1015.05 1015.14 1015.22 1015.20 1015.05
1013.68 1014.03 1014.40 1014.78 1014.99 1015.12 1015.19 1015.23 1015.30 1015.35 1015.37 1015.28 1015.16 1014.94 1014.97 1014.93 1014.88 1014.86 1014.93 1014.97 1014.91 1014.92
1013.49 1013.78 1014.12 1014.44 1014.65 1014.84 1014.99 1015.03 1015.03 1014.99 1014.97 1014.90 1014.81 1014.65 1014.68 1014.65 1014.54 1014.46 1014.51 1014.49 1014.48 1014.54
1013.17 1013.57 1013.93 1014.17 1014.36 1014.48 1014.57 1014.62 1014.60 1014.57 1014.60 1014.52 1014.39 1014.21 1014.11 1014.09 1014.13 1014.17 1014.05 1014.04 1014.05 1014.09
1012.75 1013.20 1013.57 1013.86 1013.93 1014.07 1014.16 1014.13 1014.15 1014.17 1014.15 1014.09 1013.94 1013.68 1013.49 1013.64 1013.79 1013.82 1013.67 1013.62 1013.73 1013.71
1012.21 1012.71 1013.09 1013.36 1013.45 1013.59 1013.64 1013.66 1013.67 1013.60 1013.51 1013.37 1013.23 1012.99 1013.19 1013.33 1013.35 1013.27 1013.12 1012.98 1013.21 1013.12
1011.75 1012.14 1012.49 1012.69 1012.79 1012.89 1012.97 1013.10 1013.18 1013.22 1013.10 1012.96 1012.90 1012.91 1013.00 1013.05 1013.06 1012.95 1012.80 1012.66 1012.59 1012.60
1011.30 1011.57 1011.83 1011.98 1012.08 1012.30 1012.65 1012.81 1012.84 1012.75 1012.68 1012.61 1012.69 1012.85 1012.71 1012.79 1012.95 1012.71 1012.44 1012.27 1012.13 1012.12
1010.66 1010.98 1011.20 1011.34 1011.56 1011.89 1012.07 1012.22 1012.29 1012.21 1012.07 1012.20 1012.35 1012.36 1012.80 1012.66 1012.71 1012.44 1012.00 1011.77 1011.65 1011.56
1010.00 1010.31 1010.52 1010.74 1011.12 1011.40 1011.63 1011.72 1011.72 1011.59 1011.51 1011.84 1011.93 1012.35 1012.80 1013.11 1012.91 1012.39 1011.78 1011.21 1011.16 1011.03
1009.19 1009.61 1009.86 1010.11 1010.61 1010.89 1011.10 1011.39 1011.30 1011.16 1011.12 1011.21 1011.61 1012.26 1012.38 1012.18 1012.07 1012.13 1011.84 1011.04 1010.70 1010.47
1008.40 1008.78 1009.09 1009.49 1010.10 1010.67 1010.94 1011.16 1011.25 1011.19 1011.07 1011.07 1011.36 1011.56 1011.75 1012.09 1012.00 1011.96 1011.52 1011.05 1010.56 1010.21
Wind_Speed
3 3 3 4 4 3 3 3 1 1 3 5 5 5 3 4 4 5 2 4 4 3
5 4 2 2 1 4 1 4 6 3 5 5 6 5 6 4 5 3 3 3 4 5
6 6 4 3 3 3 4 4 4 4 5 5 7 5 5 3 6 5 3 4 4 4
4 5 6 4 4 4 4 4 4 5 5 6 8 7 6 5 7 8 3 4 4 3
5 4 3 4 4 3 4 4 5 5 6 7 8 6 6 6 6 5 5 4 4 4
6 6 5 5 4 4 4 5 6 5 6 7 7 7 7 7 5 5 6 5 5 3
8 7 6 5 5 4 6 6 5 5 6 7 8 8 9 7 6 6 7 5 5 5
7 7 7 6 6 6 6 5 6 6 7 7 7 7 2 3 6 6 7 6 6 7
7 9 8 8 7 7 6 4 5 6 6 5 6 4 6 6 5 6 7 8 6 7
7 7 7 8 7 5 3 5 5 6 6 6 6 7 10 9 6 7 8 8 6 9
8 8 8 8 7 5 5 5 5 7 6 6 6 9 7 9 8 8 10 9 9 11
9 9 9 8 6 5 5 6 6 6 7 7 7 3 7 7 7 11 11 7 9 9
10 9 9 7 7 4 2 4 6 8 7 7 3 4 9 4 2 9 11 8 8 7
10 8 7 5 3 4 4 3 7 6 7 6 2 4 8 5 3 6 7 8 7 3
Wind_Direction
104 252 220 53 42 338 337 342 0 312 286 295 288 277 305 291 300 297 349 324 331 299
173 188 296 53 23 266 30 330 57 328 293 285 280 281 274 275 310 9 356 357 12 333
172 169 183 179 226 259 257 264 276 285 290 310 307 292 302 302 299 329 333 325 333 315
157 180 173 189 221 243 274 274 273 275 276 286 291 290 288 276 255 267 294 300 304 336
166 184 198 196 226 250 266 268 274 269 270 279 284 283 299 289 307 306 293 285 283 303
168 175 193 215 230 243 251 253 258 270 280 284 291 282 261 265 276 285 278 273 290 292
169 180 196 212 221 234 245 255 273 276 272 271 267 269 265 261 262 264 268 270 272 267
160 174 188 213 216 236 250 257 260 266 265 268 267 281 6 279 256 260 267 256 256 255
179 180 194 213 215 220 236 269 281 287 275 282 288 140 244 260 279 273 268 273 262 271
189 190 201 212 218 213 241 258 272 285 284 276 285 209 242 244 255 267 274 282 271 273
193 199 205 211 217 204 216 237 256 260 264 275 275 208 250 251 259 267 269 268 271 273
200 207 213 217 215 209 222 247 241 250 260 271 266 308 1 342 314 304 290 281 266 271
205 209 217 222 198 177 211 278 279 276 268 268 96 123 171 124 40 293 294 290 280 295
203 200 205 182 122 160 234 266 286 299 304 294 295 239 191 210 227 271 293 305 304 354